www.pogodaiklimat.ru

Погода и климат >> Архив погоды >> Австралия >> Clermont Airport


ПОГОДА в Clermont Airport

  • Прогноз погоды в Clermont Airport
  • Монитор погоды в Clermont Airport
  • Климат города

АРХИВ ПОГОДЫ в Clermont Airport

Время (UTC), дата Ветер
(напр.,м/с)
 
Видим.   Явления Облачность Т
(С)
Тd
(С)
f
(%)
Тe
(С)
Тes
(С)
Комфортность P
(гПа)
Po
(гПа)
Тmin
(С)
Tmax
(С)
R
(мм)
R24
(мм)
S
(см)
02 8.12 ЮВ 4 н/о н/о +28.1 +15.1 45 +31 +31 душно 1012.8 982.5 +20.5
03 8.12 В 5 н/о н/о +28.6 +14.4 42 +31 +31 жарко 1012.2 981.9
05 8.12 ЮВ 5 н/о н/о +29.8 +14.4 39 +32 +32 душно 1010.7 980.4
06 8.12 В 5 н/о н/о +29.7 +14.3 39 +32 +32 душно 1010.3 980.0
08 8.12 В 4 н/о н/о +28.1 +14.7 44 +31 +31 душно 1011.3 981.0
09 8.12 В 4 н/о н/о +27.1 +15.1 48 +30 +30 душно 1012.0 981.7
11 8.12 В 4 н/о н/о +24.9 +15.8 57 +28 +28 жарко 1012.9 982.6
12 8.12 В 3 н/о н/о +24.4 +15.9 59 +28 +28 душно 1013.5 983.1
14 8.12 В 4 н/о н/о +23.4 +15.2 60 +28 +28 душно 1012.4 982.1 +31.7
15 8.12 ЮВ 4 н/о н/о +23.0 +15.6 63 +27 +27 душно 1011.8 981.5
17 8.12 ЮВ 4 н/о н/о +22.0 +14.9 64 +25 +25 комфорт 1011.2 980.9
18 8.12 ЮВ 3 н/о н/о +21.6 +14.7 65 +25 +25 комфорт 1011.4 981.1
20 8.12 ЮВ 5 н/о н/о +21.9 +14.0 61 +25 +25 комфорт 1012.6 982.3
21 8.12 ЮВ 6 н/о н/о +22.5 +14.6 61 +26 +26 жарко 1013.1 982.7
23 8.12 ЮВ 5 н/о н/о +24.8 +14.9 54 +28 +28 жарко 1012.8 982.5
00 9.12 ЮВ 6 н/о н/о +26.6 +15.3 50 +29 +29 жарко 1012.3 982.0
02 9.12 ЮВ 6 н/о н/о +29.1 +14.9 42 +32 +32 душно 1011.2 980.9 +21.3
03 9.12 ЮВ 5 н/о н/о +30.2 +13.9 37 +32 +32 жарко 1010.4 980.1
05 9.12 ЮВ 5 н/о н/о +30.2 +14.7 39 +32 +32 жарко 1009.1 978.9
06 9.12 ЮВ 6 н/о н/о +31.3 +14.4 36 +33 +33 жарко 1008.6 978.4
08 9.12 В 5 н/о н/о +29.3 +15.8 44 +32 +32 душно 1009.9 979.6
09 9.12 В 5 н/о н/о +28.3 +15.6 46 +31 +31 душно 1010.8 980.5
11 9.12 В 1 н/о н/о +25.7 +14.5 50 +28 +28 жарко 1011.4 981.1
12 9.12 В 2 н/о н/о +25.2 +15.5 55 +28 +28 жарко 1011.9 981.6
14 9.12 В 2 н/о н/о +23.6 +16.1 63 +27 +27 жарко 1012.2 981.9 +32.5
15 9.12 В 2 н/о н/о +23.1 +16.2 65 +28 +28 душно 1011.9 981.6
17 9.12 В 3 н/о н/о +22.1 +15.7 67 +26 +26 душно 1010.6 980.3
18 9.12 ЮВ 2 н/о н/о +21.6 +15.9 70 +25 +25 комфорт 1010.4 980.1
20 9.12 ЮВ 2 н/о н/о +21.3 +16.3 73 +25 +25 комфорт 1011.2 980.9
21 9.12 ЮВ 3 н/о н/о +22.7 +16.5 68 +27 +27 душно 1011.7 981.4
23 9.12 В 4 н/о н/о +25.6 +16.5 57 +29 +29 душно 1011.8 981.5
00 10.12 ЮВ 5 н/о н/о +26.9 +16.5 53 +30 +30 душно 1011.6 981.3
02 10.12 В 4 н/о н/о +31.0 +15.4 39 +33 +33 душно 1010.6 980.3 +20.9
03 10.12 В 4 н/о н/о +31.1 +15.1 38 +33 +33 душно 1009.5 979.3
05 10.12 В 4 н/о н/о +32.0 +15.5 37 +34 +34 душно 1008.1 977.9
06 10.12 В 3 н/о н/о +31.6 +16.0 39 +34 +34 душно 1007.9 977.7
08 10.12 СВ 4 н/о н/о +30.5 +16.9 44 +34 +34 очень
душно
1008.7 978.5
09 10.12 В 3 н/о н/о +29.6 +17.8 49 +34 +34 очень
душно
1009.8 979.5
11 10.12 В 4 н/о н/о +27.5 +18.5 58 +32 +32 очень
душно
1011.0 980.7
12 10.12 В 3 н/о н/о +26.7 +18.6 61 +32 +32 очень
душно
1011.7 981.4
14 10.12 СВ 3 н/о н/о +25.6 +18.0 63 +30 +30 душно 1011.5 981.2 +33.1
15 10.12 В 2 н/о н/о +25.2 +17.9 64 +30 +30 душно 1011.2 980.9
17 10.12 В 2 н/о н/о +24.5 +17.5 65 +29 +29 душно 1010.5 980.2
18 10.12 ЮВ 2 н/о н/о +23.2 +16.7 67 +28 +28 душно 1010.7 980.4
20 10.12 ЮВ 2 н/о н/о +22.0 +16.1 69 +26 +26 душно 1011.4 981.1
21 10.12 ЮВ 3 н/о н/о +23.8 +16.1 62 +27 +27 жарко 1012.3 982.0
23 10.12 СВ 3 н/о н/о +26.9 +16.2 52 +30 +30 душно 1012.5 982.2
00 11.12 В 3 н/о н/о +28.8 +15.7 45 +32 +32 душно 1012.3 982.0
02 11.12 ЮВ 4 н/о н/о +31.5 +14.6 36 +33 +33 жарко 1010.6 980.3 +21.7
03 11.12 В 3 н/о н/о +33.6 +14.6 32 +35 +35 душно 1009.6 979.4
05 11.12 ЮВ 3 н/о н/о +35.1 +13.9 28 +36 +36 очень
жарко
1007.6 977.4
06 11.12 В 2 н/о н/о +34.5 +13.9 29 +35 +35 очень
жарко
1007.1 976.9
08 11.12 В 2 н/о н/о +33.7 +14.7 32 +35 +35 очень
жарко
1007.6 977.4
09 11.12 В 1 н/о н/о +32.5 +14.6 34 +34 +34 очень
жарко
1008.1 977.9
11 11.12 СВ 4 н/о н/о +30.3 +16.0 42 +33 +33 душно 1009.9 979.6
12 11.12 СВ 4 н/о н/о +28.9 +17.1 49 +33 +33 очень
душно
1010.3 980.0
14 11.12 СВ 2 н/о н/о +26.0 +18.2 62 +31 +31 очень
душно
1010.4 980.1 +37.1
15 11.12 СВ 2 н/о н/о +25.0 +18.7 68 +30 +30 душно 1009.9 979.6
17 11.12 В 3 н/о н/о +24.3 +19.1 73 +29 +29 душно 1009.2 979.0
18 11.12 В 2 н/о н/о +24.1 +19.2 74 +29 +29 душно 1009.5 979.3
20 11.12 В 2 н/о н/о +24.1 +19.2 74 +29 +29 душно 1010.9 980.6
21 11.12 В 2 н/о н/о +24.4 +19.7 75 +30 +30 очень
душно
1011.5 981.2
23 11.12 В 3 н/о н/о +26.5 +19.1 64 +32 +32 очень
душно
1011.3 981.0
00 12.12 В 2 н/о н/о +27.8 +19.1 59 +33 +33 очень
душно
1010.8 980.5
02 12.12 В 4 н/о н/о +32.0 +18.2 44 +37 +37 очень
душно
1009.5 979.3 +23.7
03 12.12 СВ 3 н/о н/о +31.4 +16.6 41 +35 +35 очень
душно
1008.6 978.4
05 12.12 СВ 2 н/о н/о +35.0 +14.8 30 +36 +36 очень
жарко
1006.0 975.9
06 12.12 СЗ 2 н/о н/о +35.9 +15.1 29 +37 +37 душно 1005.1 975.0
08 12.12 СВ 4 н/о н/о +34.6 +15.5 32 +37 +37 очень
душно
1005.2 975.1
09 12.12 СВ 5 н/о н/о +31.7 +18.3 45 +36 +36 очень
душно
1005.7 975.6
11 12.12 СВ 4 н/о н/о +27.7 +19.5 61 +33 +33 очень
душно
1007.6 977.4
12 12.12 СВ 7 н/о н/о +26.3 +19.4 66 +32 +32 очень
душно
1008.4 978.2
14 12.12 СВ 3 н/о н/о +25.0 +19.8 73 +31 +31 очень
душно
1008.3 978.1 +36.4
15 12.12 СВ 4 н/о н/о +25.0 +19.8 73 +31 +31 очень
душно
1007.8 977.6
17 12.12 СВ 3 н/о н/о +25.1 +19.9 73 +31 +31 очень
душно
1007.2 977.0
18 12.12 СВ 3 н/о н/о +24.9 +19.9 74 +30 +30 душно 1006.8 976.6
20 12.12 СВ 2 н/о н/о +24.6 +20.3 77 +30 +30 очень
душно
1008.0 977.8
21 12.12 В 1 н/о н/о +24.9 +20.4 76 +31 +31 очень
душно
1008.8 978.6
23 12.12 В 1 н/о туман местами н/о +23.1 +21.4 90 +31 +31 очень
душно
1009.1 978.9
00 13.12 СВ 2 н/о н/о +22.6 +21.6 94 +30 +30 очень
душно
1008.6 978.4
02 13.12 СВ 2 н/о туман местами н/о +22.1 +21.1 94 +29 +29 очень
душно
1006.4 976.2 +22.6
03 13.12 С 3 н/о н/о +23.5 +21.0 86 +30 +30 очень
душно
1006.0 975.9
05 13.12 СЗ 3 н/о {туман} н/о +27.5 +21.1 68 +35 +35 очень
душно
1003.8 973.7
06 13.12 С 3 н/о н/о +27.9 +20.7 65 +35 +35 очень
душно
1003.9 973.8
08 13.12 С 4 н/о н/о +26.9 +20.5 68 +33 +33 очень
душно
1004.2 974.1
09 13.12 СВ 4 н/о н/о +25.0 +21.3 80 +32 +32 очень
душно
1001.8 971.8
11 13.12 С 2 н/о н/о +24.5 +21.0 81 +31 +31 очень
душно
1005.2 975.1
12 13.12 С 2 н/о н/о +24.2 +21.3 84 +31 +31 очень
душно
1005.5 975.4
14 13.12 С 2 н/о н/о +23.8 +21.1 85 +30 +30 очень
душно
1004.1 974.0 +28.5
15 13.12 С 3 н/о н/о +23.8 +21.1 85 +30 +30 очень
душно
1003.9 973.8
17 13.12 С 1 н/о н/о +23.2 +21.3 89 +31 +31 очень
душно
1003.2 973.1
18 13.12 С 2 н/о н/о +22.8 +21.4 92 +30 +30 очень
душно
1003.2 973.1
20 13.12 С 2 н/о н/о +22.7 +20.6 88 +30 +30 очень
душно
1004.0 973.9
21 13.12 С 3 н/о н/о +23.4 +20.7 85 +31 +31 очень
душно
1004.3 974.2
23 13.12 СЗ 2 н/о н/о +27.0 +20.1 66 +33 +33 очень
душно
1003.9 973.8
00 14.12 З 3 н/о н/о +28.2 +18.9 57 +33 +33 очень
душно
1003.7 973.6
02 14.12 СЗ 3 н/о н/о +30.5 +18.9 50 +36 +36 очень
душно
1003.1 973.0 +21.9
03 14.12 СЗ 3 н/о н/о +31.3 +19.3 49 +37 +37 очень
душно
1002.1 972.1
05 14.12 СЗ 4 н/о н/о +31.1 +19.4 50 +37 +37 очень
душно
1001.5 971.5
06 14.12 СЗ 4 н/о н/о +31.7 +19.7 49 +38 +38 очень
душно
1001.2 971.2
08 14.12 СЗ 3 н/о н/о +31.3 +19.9 51 +38 +38 очень
душно
1002.2 972.2
09 14.12 СЗ 2 н/о н/о +30.0 +19.1 52 +35 +35 очень
душно
1002.9 972.9
11 14.12 С 1 н/о н/о +27.8 +20.9 66 +35 +35 очень
душно
1004.0 973.9
12 14.12 СЗ 2 н/о н/о +27.4 +20.5 66 +34 +34 очень
душно
1004.4 974.3
14 14.12 С 2 н/о н/о +26.3 +18.9 64 +31 +31 душно 1003.9 973.8 +32.6
15 14.12 СЗ 2 н/о н/о +26.3 +17.6 59 +31 +31 душно 1003.7 973.6
17 14.12 З 1 н/о н/о +24.9 +17.6 64 +29 +29 душно 1003.4 973.3
18 14.12 З 1 н/о н/о +24.6 +16.8 62 +28 +28 душно 1003.7 973.6
20 14.12 штиль 0 н/о н/о +23.8 +19.3 76 +29 +29 душно 1005.3 975.2
21 14.12 штиль 0 н/о н/о +25.3 +13.2 47 +27 +27 жарко 1006.5 976.3
23 14.12 Ю 2 н/о н/о +26.7 +8.6 32 +27 +27 жарко 1006.6 976.4
00 15.12 В 2 н/о н/о +29.1 +5.9 23 +28 +28 жарко 1006.5 976.3

 

Местоположение метеостанции Clermont Airport (Квинсленд, Австралия): широта -22.77 долгота 147.62 высота над уровнем моря 271 м.

В архиве по умолчанию представлена погода в Clermont Airport за последнюю неделю. Архивные данные за месяц целиком и за предыдущие месяцы, начиная с января 2011 года, Вы можете получить, выбрав интересующий диапазон дат из раскрывающегося списка и нажав кнопку "Ввод!".


*Определитесь, кто Вы:
робот инопланетянин человек

Внимание! Время в таблицах - всемирное. Для получения местного времени необходимо прибавить поправку, которая в Clermont Airport равна 10 ч.

Смотрите также архив погоды в соседних городах и на ближайших метеорологических станциях:

Погода в Emerald Airport (Квинсленд, Австралия) (105 км)
Погода в Lochington (Квинсленд, Австралия) (129 км)
Погода в St Lawrence (Квинсленд, Австралия) (201 км)
Погода в Rolleston Airport (Квинсленд, Австралия) (215 км)
Погода в Mackay Airport (Квинсленд, Австралия) (240 км)
Погода в Mackay Mo (Квинсленд, Австралия) (247 км)
Погода в Williamson (Квинсленд, Австралия) (265 км)
Погода в Proserpine Airport (Квинсленд, Австралия) (269 км)
Погода в Blackall Airport (Квинсленд, Австралия) (289 км)
Погода в Middle Percy Island (Квинсленд, Австралия) (299 км)

Пояснения к столбцам:

Ветер - указаны скорость ветра в м/с - средняя за 10 мин, порывы в срок и между сроками (в фигурных скобках) и направление, откуда дует ветер: С - северный, СВ - северо-восточный, В - восточный, ЮВ - юго-восточный, Ю - южный, ЮЗ - юго-западный, З - западный, СЗ - северо-западный.
Видимость - горизонтальная дальность видимости в метрах или километрах. При видимости от 1 до 10 км при отсутствии осадков обычно наблюдается дымка, при ухудшении видимости до 1 км и менее - туман. В сухую погоду видимость может ухудшаться дымом, пылью или мглою.
Явления - указаны атмосферные явления, наблюдавшиеся в срок или в последний час перед сроком; фигурными скобками обозначены явления, наблюдавшиеся между сроками (за 1-3 часа до срока); квадратными скобками обозначены град или гололедные отложения с указанием их диаметра в мм.
Облачность - указаны через наклонную черту общая и нижняя облачность в баллах и высота нижней границы облаков в метрах; квадратными скобками обозначены формы облаков: Ci - перистые, Cs - перисто-слоистые, Cc - перисто-кучевые, Ac - высококучевые, As - высокослоистые, Sc - слоисто-кучевые, Ns - слоисто-дождевые, Cu - кучевые, Cb - кучево-дождевые. Подробнее классификацию облаков см. в Атласе облаков (PDF).
T - Температура воздуха - температура, измеренная на высоте 2 м над землей.
Td - Температура точки росы - температура, при понижении до которой содержащийся в воздухе водяной пар достигнет насыщения.
f - Относительная влажность воздуха - влажноcть воздуха, измеренная на высоте 2 м над землей.
Te - Эффективная температура - температура, которую ощущает одетый по сезону человек в тени. Характеристика душности погоды. При расчете учитывается влияние влажности воздуха и скорости ветра на теплоощущения человека.
Tes - Эффективная температура на солнце - температура, которую ощущает человек, с поправкой на солнечный нагрев. Характеристика знойности погоды. Зависит от высоты солнца над горизонтом, облачности и скорости ветра. Ночью, в пасмурную погоду, а также при ветре 12 м/с и более поправка равна нулю.
P - Атмосферное давление - приведенное к уровню моря атмосферное давление.
Po - Атмосферное давление - измеренное на уровне метеостанции атмосферное давление.
Tmin - Минимальная температура - минимум температуры воздуха на высоте 2 м над землей.
Tmax - Максимальная температура - максимум температуры воздуха на высоте 2 м над землей.
R - Количество осадков - Количество выпавших осадков за период времени, мм. При наведении курсора мыши на число - период времени, за который выпало указанное количество осадков.
R24 - Количество осадков - Количество выпавших осадков за 24 часа, мм.
S - Снежный покров - Высота снежного покрова, см. При наведении курсора мыши на число - состояние снежного покрова и степень покрытия местности в баллах.